"startDT [UTC]","vpos","CH4 [ppm]","stdev(CH4) [ppm]","CO2 [ppm]","stdev(CO2) [ppm]","H2O [ppm]","stdev(H2O)","p_LGR [torr]","T_LGR [C]","mt1_LGR [us]","mt2_LGR [us]","T_ECpre [C]","T_EC1 [C]","T_EC2 [C]","p_inlet [hPa]","p_in [hPa]","p_out [hPa]","T_inlet [C]","RH_inlet [%]","dwpt_inlet [C]","T_vent [C]","RH_vent [%]","dwpt_vent [C]","flow_vent [l min-1]","flow_inlet [l min-1]","dwpt_sample [C]","T_room [C]"
2013-02-15 00:00:00,0.0,1.9255,0.0008,407.55,0.24,-1.0,0.0,138.25,21.96,24.61,36.29,0.04,-272.74,-272.74,-44,554,-928,15.8,0.2,-55.8,15.9,0.2,-53.4,5.73,2.32,-43.2,21.5
2013-02-15 00:01:00,0.0,1.9258,0.0011,407.64,0.26,-1.0,0.0,138.26,21.96,24.61,36.29,0.04,-272.74,-272.75,-43,554,-928,15.8,0.2,-55.5,15.9,0.2,-53.1,5.73,2.44,-43.2,21.5
2013-02-15 00:02:00,0.0,1.9260,0.0008,407.70,0.32,-1.0,0.0,138.25,21.96,24.61,36.29,0.04,-272.74,-272.74,-44,554,-927,15.8,0.2,-55.7,15.9,0.2,-52.7,5.73,2.47,-43.2,21.5
2013-02-15 00:03:00,0.0,1.9261,0.0008,408.02,0.23,-1.0,0.0,138.25,21.96,24.61,36.29,0.04,-272.75,-272.74,-44,554,-928,15.8,0.2,-55.7,15.9,0.3,-52.4,5.73,2.31,-43.2,21.5
2013-02-15 00:04:00,0.0,1.9262,0.0009,408.11,0.25,-1.0,0.0,138.25,21.96,24.61,36.30,0.04,-272.74,-272.74,-43,554,-928,15.8,0.2,-55.5,15.9,0.3,-52.6,5.73,2.47,-43.2,21.5
2013-02-15 00:05:00,0.0,1.9259,0.0009,408.00,0.23,-1.0,0.0,138.25,21.96,24.61,36.29,0.04,-272.74,-272.73,-44,554,-928,15.8,0.2,-55.7,15.9,0.2,-52.6,5.73,2.45,-43.2,21.5
2013-02-15 00:06:00,0.0,1.9261,0.0010,408.13,0.25,-1.0,0.0,138.25,21.96,24.61,36.29,0.04,-272.74,-272.74,-43,554,-927,15.8,0.2,-55.8,15.9,0.3,-52.5,5.73,2.31,-43.2,21.5
2013-02-15 00:07:00,0.0,1.9262,0.0009,408.12,0.30,-1.0,0.0,138.26,21.95,24.61,36.29,0.04,-272.74,-272.74,-44,554,-928,15.8,0.2,-55.6,15.9,0.3,-52.5,5.73,2.48,-43.2,21.5
2013-02-15 00:08:00,0.0,1.9266,0.0007,408.26,0.27,-1.0,0.0,138.25,21.95,24.61,36.29,0.04,-272.73,-272.73,-44,554,-928,15.8,0.2,-55.8,15.9,0.2,-52.7,5.73,2.43,-43.2,21.5
2013-02-15 00:09:00,0.0,1.9260,0.0009,408.34,0.27,-1.0,0.0,138.26,21.95,24.61,36.29,0.04,-272.74,-272.74,-43,554,-928,15.8,0.2,-55.7,15.9,0.3,-52.6,5.73,2.32,-43.2,21.5
2013-02-15 00:10:00,0.0,1.9250,0.0010,407.97,0.32,-1.0,0.0,138.25,21.95,24.61,36.29,0.04,-272.74,-272.73,-44,554,-927,15.8,0.2,-55.6,15.9,0.2,-52.6,5.73,2.51,-43.2,21.5
2013-02-15 00:11:00,0.0,1.9243,0.0009,407.39,0.32,-1.0,0.0,138.25,21.95,24.61,36.29,0.04,-272.74,-272.74,-43,554,-928,15.8,0.2,-55.8,15.9,0.3,-52.6,5.73,2.39,-43.2,21.5
2013-02-15 00:12:00,0.0,1.9254,0.0008,407.87,0.30,-1.0,0.0,138.26,21.95,24.60,36.29,0.04,-272.73,-272.74,-44,554,-928,15.8,0.2,-55.6,15.9,0.2,-52.7,5.73,2.34,-43.2,21.5
2013-02-15 00:13:00,0.0,1.9248,0.0008,407.83,0.30,-1.0,0.0,138.25,21.95,24.61,36.29,0.04,-272.74,-272.74,-44,554,-928,15.8,0.2,-55.7,15.9,0.3,-52.6,5.73,2.51,-43.2,21.5
2013-02-15 00:14:00,0.0,1.9252,0.0008,407.73,0.27,-1.0,0.0,138.25,21.95,24.61,36.29,0.04,-272.74,-272.74,-43,554,-927,15.8,0.2,-55.5,15.9,0.3,-52.6,5.73,2.37,-43.2,21.5
2013-02-15 00:15:00,0.0,1.9248,0.0008,407.65,0.28,-1.0,0.0,138.25,21.95,24.61,36.29,0.04,-272.74,-272.74,-44,554,-928,15.8,0.2,-55.3,15.9,0.3,-52.6,5.73,2.36,-43.2,21.5
2013-02-15 00:16:00,0.0,1.9247,0.0008,407.60,0.28,-1.0,0.0,138.25,21.95,24.61,36.29,0.04,-272.74,-272.73,-43,554,-928,15.8,0.2,-54.6,15.9,0.3,-52.4,5.73,2.51,-43.2,21.5
2013-02-15 00:17:00,0.0,1.9245,0.0009,407.48,0.27,-1.0,0.0,138.25,21.95,24.61,36.29,0.04,-272.74,-272.74,-44,554,-928,15.8,0.2,-54.4,15.9,0.3,-51.6,5.73,2.35,-43.3,21.5
2013-02-15 00:18:00,0.0,1.9246,0.0009,407.55,0.25,-1.0,0.0,138.25,21.95,24.61,36.29,0.04,-272.74,-272.74,-44,554,-928,15.8,0.2,-54.4,15.9,0.3,-51.8,5.73,2.38,-43.2,21.5
2013-02-15 00:19:00,0.0,1.9245,0.0007,407.45,0.31,-1.0,0.0,138.25,21.95,24.61,36.30,0.04,-272.74,-272.74,-44,554,-928,15.8,0.2,-54.6,15.9,0.3,-51.9,5.73,2.51,-43.2,21.5
2013-02-15 00:20:00,0.0,1.9246,0.0010,407.48,0.25,-1.0,0.0,138.25,21.95,24.61,36.29,0.04,-272.74,-272.74,-44,554,-928,15.7,0.2,-54.4,15.9,0.3,-51.7,5.73,2.33,-43.2,21.5
2013-02-15 00:21:00,0.0,1.9246,0.0008,407.48,0.25,-1.0,0.0,138.25,21.95,24.61,36.29,0.04,-272.74,-272.74,-43,554,-928,15.8,0.2,-54.4,15.9,0.3,-51.8,5.73,2.41,-43.2,21.5
2013-02-15 00:22:00,0.0,1.9251,0.0008,407.58,0.25,-1.0,0.0,138.25,21.95,24.60,36.29,0.04,-272.74,-272.74,-44,554,-928,15.8,0.2,-54.4,15.9,0.3,-51.8,5.73,2.50,-43.2,21.5
2013-02-15 00:23:00,0.0,1.9250,0.0009,407.72,0.27,-1.0,0.0,138.25,21.95,24.61,36.29,0.04,-272.74,-272.74,-44,554,-928,15.7,0.2,-54.5,15.9,0.3,-51.8,5.73,2.32,-43.2,21.5
2013-02-15 00:24:00,0.0,1.9253,0.0009,407.72,0.24,-1.0,0.0,138.25,21.95,24.61,36.30,0.04,-272.74,-272.73,-43,554,-928,15.7,0.2,-54.3,15.9,0.3,-51.7,5.73,2.42,-43.2,21.5
2013-02-15 00:25:00,0.0,1.9250,0.0008,407.88,0.24,-1.0,0.0,138.25,21.95,24.61,36.29,0.04,-272.74,-272.74,-44,554,-928,15.8,0.2,-54.6,15.9,0.3,-51.8,5.73,2.49,-43.2,21.5
2013-02-15 00:26:00,0.0,1.9249,0.0008,407.74,0.29,-1.0,0.0,138.25,21.94,24.61,36.30,0.04,-272.74,-272.74,-43,554,-927,15.7,0.2,-54.3,15.9,0.3,-51.8,5.73,2.31,-43.2,21.5
2013-02-15 00:27:00,0.0,1.9248,0.0008,407.72,0.28,-1.0,0.0,138.25,21.94,24.61,36.29,0.04,-272.74,-272.75,-44,554,-928,15.7,0.2,-54.5,15.9,0.3,-51.7,5.73,2.47,-43.2,21.5
2013-02-15 00:28:00,0.0,1.9249,0.0009,407.78,0.27,-1.0,0.0,138.25,21.94,24.61,36.29,0.04,-272.73,-272.74,-43,554,-928,15.8,0.2,-54.6,15.9,0.3,-51.8,5.73,2.44,-43.2,21.5
2013-02-15 00:29:00,0.0,1.9250,0.0007,407.61,0.25,-1.0,0.0,138.25,21.94,24.61,36.29,0.04,-272.73,-272.74,-44,554,-928,15.8,0.2,-54.3,15.9,0.3,-51.9,5.73,2.32,-43.2,21.5
2013-02-15 00:30:00,0.0,1.9252,0.0010,407.65,0.21,-1.0,0.0,138.25,21.94,24.61,36.29,0.04,-272.74,-272.74,-44,554,-927,15.8,0.2,-54.5,15.9,0.3,-51.8,5.73,2.50,-43.2,21.5
2013-02-15 00:31:00,0.0,1.9257,0.0008,407.67,0.26,-1.0,0.0,138.25,21.94,24.61,36.29,0.04,-272.74,-272.74,-43,554,-928,15.8,0.2,-54.5,15.9,0.3,-51.7,5.73,2.41,-43.2,21.5
2013-02-15 00:32:00,0.0,1.9252,0.0009,407.68,0.23,-1.0,0.0,138.25,21.94,24.61,36.29,0.04,-272.74,-272.74,-44,554,-928,15.7,0.2,-54.6,15.9,0.3,-51.8,5.73,2.33,-43.2,21.5
2013-02-15 00:33:00,0.0,1.9262,0.0008,407.78,0.27,-1.0,0.0,138.25,21.94,24.61,36.29,0.04,-272.73,-272.74,-43,554,-928,15.7,0.2,-54.5,15.9,0.3,-51.7,5.73,2.51,-43.2,21.5
2013-02-15 00:34:00,0.0,1.9259,0.0009,407.78,0.25,-1.0,0.0,138.26,21.94,24.61,36.29,0.04,-272.74,-272.73,-44,554,-927,15.7,0.2,-54.5,15.9,0.3,-51.8,5.73,2.39,-43.2,21.5
2013-02-15 00:35:00,0.0,1.9256,0.0008,407.66,0.24,-1.0,0.0,138.25,21.94,24.61,36.29,0.04,-272.74,-272.74,-44,554,-928,15.7,0.2,-54.3,15.9,0.3,-51.8,5.73,2.34,-43.2,21.5
2013-02-15 00:36:00,0.0,1.9258,0.0010,407.72,0.27,-1.0,0.0,138.26,21.94,24.61,36.29,0.04,-272.74,-272.73,-43,554,-928,15.7,0.2,-54.5,15.8,0.3,-51.8,5.73,2.52,-43.2,21.5
2013-02-15 00:37:00,0.0,1.9255,0.0009,407.74,0.26,-1.0,0.0,138.25,21.94,24.61,36.29,0.04,-272.74,-272.73,-44,554,-928,15.7,0.2,-54.4,15.8,0.3,-51.7,5.73,2.37,-43.2,21.5
2013-02-15 00:38:00,0.0,1.9251,0.0009,407.61,0.27,-1.0,0.0,138.26,21.93,24.61,36.29,0.04,-272.74,-272.74,-43,554,-927,15.7,0.2,-54.7,15.9,0.3,-51.7,5.73,2.36,-43.2,21.5
2013-02-15 00:39:00,0.0,1.9251,0.0009,407.63,0.29,-1.0,0.0,138.25,21.93,24.61,36.29,0.04,-272.74,-272.73,-44,554,-928,15.7,0.2,-54.4,15.9,0.2,-52.8,5.73,2.51,-43.1,21.5
2013-02-15 00:40:00,0.0,1.9252,0.0008,407.64,0.29,-1.0,0.0,138.26,21.93,24.61,36.29,0.04,-272.74,-272.74,-44,554,-928,15.8,0.2,-55.0,15.9,0.3,-52.5,5.73,2.36,-43.2,21.5
2013-02-15 00:41:00,0.0,1.9252,0.0009,407.63,0.25,-1.0,0.0,138.26,21.93,24.61,36.30,0.04,-272.74,-272.75,-43,554,-928,15.7,0.2,-55.7,15.9,0.3,-52.5,5.73,2.37,-43.2,21.5
2013-02-15 00:42:00,0.0,1.9256,0.0009,407.71,0.25,-1.0,0.0,138.25,21.93,24.61,36.29,0.04,-272.73,-272.74,-44,554,-927,15.8,0.2,-55.8,15.9,0.2,-52.7,5.73,2.51,-43.2,21.5
2013-02-15 00:43:00,0.0,1.9258,0.0008,407.71,0.25,-1.0,0.0,138.26,21.93,24.61,36.29,0.04,-272.73,-272.74,-43,554,-928,15.7,0.2,-55.4,15.8,0.2,-52.7,5.73,2.34,-43.2,21.5
2013-02-15 00:44:00,0.0,1.9256,0.0008,407.77,0.26,-1.0,0.0,138.25,21.93,24.61,36.29,0.04,-272.74,-272.74,-44,554,-928,15.7,0.2,-55.7,15.8,0.2,-52.9,5.73,2.39,-43.2,21.5
2013-02-15 00:45:00,0.0,1.9256,0.0007,407.81,0.24,-1.0,0.0,138.26,21.93,24.61,36.29,0.04,-272.74,-272.74,-44,554,-928,15.7,0.2,-55.7,15.8,0.2,-53.6,5.73,2.51,-43.2,21.5
2013-02-15 00:46:00,0.0,1.9252,0.0008,407.69,0.28,-1.0,0.0,138.26,21.93,24.61,36.29,0.04,-272.73,-272.74,-43,554,-928,15.7,0.2,-55.8,15.8,0.2,-53.6,5.73,2.34,-43.2,21.5
2013-02-15 00:47:00,0.0,1.9253,0.0009,407.78,0.26,-1.0,0.0,138.26,21.93,24.61,36.29,0.04,-272.73,-272.74,-44,554,-928,15.7,0.2,-55.6,15.8,0.2,-53.7,5.73,2.39,-43.2,21.5
2013-02-15 00:48:00,0.0,1.9249,0.0008,407.74,0.22,-1.0,0.0,138.25,21.93,24.61,36.29,0.04,-272.74,-272.73,-43,554,-928,15.7,0.2,-55.5,15.8,0.2,-53.4,5.73,2.51,-43.2,21.5
2013-02-15 00:49:00,0.0,1.9251,0.0009,407.70,0.23,-1.0,0.0,138.26,21.92,24.61,36.30,0.04,-272.74,-272.74,-44,553,-928,15.7,0.2,-55.6,15.8,0.3,-52.6,5.73,2.33,-43.2,21.5
2013-02-15 00:50:00,0.0,1.9251,0.0007,407.83,0.25,-1.0,0.0,138.25,21.92,24.61,36.29,0.04,-272.74,-272.74,-44,553,-927,15.7,0.2,-55.6,15.8,0.2,-52.8,5.73,2.41,-43.2,21.5
2013-02-15 00:51:00,0.0,1.9247,0.0009,407.96,0.32,-1.0,0.0,138.26,21.92,24.61,36.29,0.04,-272.74,-272.74,-43,554,-928,15.7,0.2,-54.6,15.8,0.2,-52.7,5.73,2.50,-43.2,21.5
2013-02-15 00:52:00,0.0,1.9252,0.0009,407.91,0.28,-1.0,0.0,138.26,21.92,24.61,36.29,0.04,-272.73,-272.74,-44,553,-928,15.7,0.2,-54.6,15.8,0.3,-51.8,5.73,2.32,-43.1,21.5
2013-02-15 00:53:00,0.0,1.9253,0.0008,407.83,0.28,-1.0,0.0,138.25,21.92,24.61,36.28,0.04,-272.73,-272.74,-44,554,-928,15.7,0.2,-54.4,15.8,0.3,-51.9,5.73,2.43,-43.1,21.5
2013-02-15 00:54:00,0.0,1.9255,0.0008,407.72,0.26,-1.0,0.0,138.26,21.92,24.61,36.29,0.04,-272.73,-272.74,-44,554,-927,15.7,0.2,-54.3,15.8,0.3,-51.7,5.73,2.49,-43.1,21.5
2013-02-15 00:55:00,0.0,1.9263,0.0009,407.69,0.28,-1.0,0.0,138.25,21.92,24.61,36.29,0.04,-272.74,-272.75,-44,553,-928,15.7,0.2,-53.6,15.8,0.3,-51.1,5.73,2.32,-43.1,21.5
2013-02-15 00:56:00,0.0,1.9267,0.0010,407.85,0.30,-1.0,0.0,138.25,21.92,24.61,36.29,0.04,-272.74,-272.74,-43,554,-928,15.7,0.2,-53.5,15.8,0.3,-50.9,5.73,2.44,-43.1,21.5
2013-02-15 00:57:00,0.0,1.9266,0.0009,407.81,0.26,-1.0,0.0,138.26,21.92,24.61,36.29,0.04,-272.74,-272.74,-44,554,-928,15.7,0.2,-52.8,15.8,0.3,-51.0,5.73,2.48,-43.1,21.5
2013-02-15 00:58:00,0.0,1.9269,0.0009,407.81,0.27,-1.0,0.0,138.25,21.92,24.61,36.29,0.04,-272.74,-272.74,-44,554,-928,15.7,0.3,-52.5,15.8,0.3,-50.4,5.73,2.32,-43.1,21.5
2013-02-15 00:59:00,0.0,1.9268,0.0008,407.76,0.26,-1.0,0.0,138.26,21.92,24.61,36.29,0.04,-272.74,-272.73,-44,554,-928,15.7,0.2,-52.9,15.8,0.3,-50.8,5.73,2.44,-43.1,21.5
2013-02-15 01:00:00,0.0,1.9266,0.0009,407.66,0.26,-1.0,0.0,138.25,21.92,24.61,36.29,0.04,-272.74,-272.74,-44,554,-928,15.8,0.2,-53.3,15.9,0.3,-50.9,5.73,2.48,-43.1,21.5
2013-02-15 01:01:00,0.0,1.9272,0.0009,407.96,0.26,-1.0,0.0,138.25,21.93,24.61,36.29,0.04,-272.74,-272.75,-44,554,-928,15.8,0.2,-53.9,15.9,0.3,-51.4,5.73,2.31,-43.1,21.5
2013-02-15 01:02:00,0.0,1.9267,0.0008,407.96,0.24,-1.0,0.0,138.25,21.93,24.61,36.29,0.04,-272.74,-272.73,-44,554,-927,15.8,0.2,-54.4,15.9,0.3,-51.7,5.73,2.46,-43.1,21.5
2013-02-15 01:03:00,0.0,1.9263,0.0009,407.90,0.21,-1.0,0.0,138.26,21.93,24.61,36.29,0.04,-272.74,-272.73,-44,554,-928,15.8,0.2,-54.5,15.9,0.3,-52.2,5.73,2.46,-43.1,21.5
2013-02-15 01:04:00,0.0,1.9271,0.0009,407.74,0.22,-1.0,0.0,138.25,21.93,24.61,36.29,0.04,-272.74,-272.74,-44,554,-928,15.8,0.2,-55.5,15.9,0.3,-52.6,5.73,2.31,-43.1,21.5
2013-02-15 01:05:00,0.0,1.9262,0.0009,407.81,0.28,-1.0,0.0,138.26,21.92,24.61,36.29,0.04,-272.74,-272.74,-44,554,-928,15.8,0.2,-55.6,15.9,0.3,-52.5,5.73,2.47,-43.1,21.5
2013-02-15 01:06:00,0.0,1.9277,0.0011,407.75,0.27,-1.0,0.0,138.25,21.92,24.61,36.29,0.04,-272.74,-272.74,-44,554,-928,15.8,0.2,-55.6,15.8,0.2,-52.7,5.73,2.45,-43.1,21.5
2013-02-15 01:07:00,0.0,1.9268,0.0009,407.68,0.29,-1.0,0.0,138.26,21.92,24.61,36.29,0.04,-272.73,-272.74,-44,554,-928,15.8,0.2,-55.7,15.9,0.2,-52.9,5.73,2.31,-43.1,21.5
2013-02-15 01:08:00,0.0,1.9288,0.0009,407.58,0.34,-1.0,0.0,138.25,21.92,24.61,36.29,0.04,-272.74,-272.73,-44,554,-928,15.8,0.2,-55.6,15.8,0.2,-53.6,5.73,2.49,-43.1,21.5
2013-02-15 01:09:00,0.0,1.9287,0.0010,407.46,0.33,-1.0,0.0,138.26,21.92,24.61,36.30,0.04,-272.74,-272.74,-44,554,-928,15.8,0.2,-55.9,15.9,0.2,-53.6,5.73,2.42,-43.1,21.5
2013-02-15 01:10:00,0.0,1.9288,0.0008,407.08,0.34,-1.0,0.0,138.25,21.92,24.61,36.30,0.04,-272.73,-272.74,-44,554,-928,15.8,0.2,-55.6,15.9,0.2,-53.9,5.73,2.32,-43.1,21.5
2013-02-15 01:11:00,0.0,1.9287,0.0008,407.27,0.32,-1.0,0.0,138.26,21.92,24.61,36.29,0.04,-272.73,-272.74,-44,554,-928,15.8,0.2,-55.6,15.9,0.2,-53.7,5.73,2.51,-43.1,21.5
2013-02-15 01:12:00,0.0,1.9287,0.0009,407.10,0.34,-1.0,0.0,138.26,21.93,24.61,36.30,0.04,-272.74,-272.74,-44,554,-928,15.8,0.2,-55.8,15.9,0.2,-53.5,5.73,2.41,-43.1,21.5
2013-02-15 01:13:00,0.0,1.9286,0.0009,406.78,0.28,-1.0,0.0,138.25,21.93,24.61,36.30,0.04,-272.74,-272.74,-44,554,-928,15.8,0.2,-55.6,15.9,0.2,-53.6,5.73,2.33,-43.1,21.5
2013-02-15 01:14:00,0.0,1.9279,0.0011,407.21,0.27,-1.0,0.0,138.25,21.93,24.61,36.30,0.04,-272.74,-272.74,-44,554,-927,15.8,0.2,-55.6,15.9,0.2,-53.6,5.73,2.51,-43.0,21.5
2013-02-15 01:15:00,0.0,1.9284,0.0009,406.84,0.28,-1.0,0.0,138.25,21.93,24.61,36.29,0.04,-272.73,-272.73,-44,554,-928,15.8,0.2,-55.9,15.9,0.2,-53.7,5.73,2.38,-43.1,21.5
2013-02-15 01:16:00,0.0,1.9276,0.0008,406.65,0.26,-1.0,0.0,138.25,21.93,24.61,36.30,0.04,-272.74,-272.73,-44,554,-928,15.8,0.2,-55.7,15.9,0.2,-53.6,5.73,2.35,-43.2,21.5
2013-02-15 01:17:00,0.0,1.9280,0.0009,406.46,0.23,-1.0,0.0,138.25,21.93,24.61,36.30,0.04,-272.74,-272.74,-44,554,-928,15.8,0.2,-55.7,15.9,0.2,-53.6,5.73,2.51,-43.1,21.5
2013-02-15 01:18:00,0.0,1.9277,0.0010,406.46,0.33,-1.0,0.0,138.25,21.92,24.61,36.30,0.04,-272.74,-272.73,-44,554,-927,15.8,0.2,-55.7,15.9,0.2,-53.8,5.73,2.37,-43.1,21.5
2013-02-15 01:19:00,0.0,1.9280,0.0008,406.66,0.27,-1.0,0.0,138.25,21.92,24.61,36.29,0.04,-272.73,-272.74,-44,554,-928,15.8,0.2,-55.6,15.9,0.2,-53.7,5.73,2.35,-43.1,21.5
2013-02-15 01:20:00,0.0,1.9279,0.0006,406.52,0.26,-1.0,0.0,138.26,21.93,24.61,36.29,0.04,-272.73,-272.74,-44,554,-928,15.8,0.2,-55.8,15.9,0.2,-53.6,5.73,2.51,-43.1,21.5
2013-02-15 01:21:00,0.0,1.9279,0.0008,406.59,0.25,-1.0,0.0,138.25,21.93,24.61,36.29,0.04,-272.74,-272.74,-44,554,-928,15.8,0.2,-55.8,15.9,0.2,-53.5,5.73,2.37,-43.1,21.5
2013-02-15 01:22:00,0.0,1.9282,0.0010,406.71,0.24,-1.0,0.0,138.26,21.93,24.61,36.29,0.04,-272.73,-272.74,-44,554,-927,15.8,0.2,-55.7,15.9,0.2,-53.7,5.73,2.36,-43.1,21.5
2013-02-15 01:23:00,0.0,1.9286,0.0010,406.63,0.29,-1.0,0.0,138.25,21.94,24.61,36.29,0.04,-272.73,-272.73,-44,554,-928,15.8,0.2,-55.7,15.9,0.2,-52.8,5.73,2.51,-43.1,21.6
2013-02-15 01:24:00,0.0,1.9285,0.0008,406.53,0.27,-1.0,0.0,138.25,21.94,24.61,36.30,0.04,-272.74,-272.74,-44,554,-928,15.8,0.2,-55.7,15.9,0.2,-52.7,5.73,2.35,-43.0,21.6
2013-02-15 01:25:00,0.0,1.9282,0.0009,406.55,0.28,-1.0,0.0,138.25,21.94,24.61,36.29,0.04,-272.74,-272.74,-44,554,-928,15.8,0.2,-55.4,15.9,0.2,-52.7,5.73,2.38,-43.0,21.6
2013-02-15 01:26:00,0.0,1.9279,0.0008,406.69,0.26,-1.0,0.0,138.25,21.94,24.61,36.29,0.04,-272.73,-272.73,-44,554,-928,15.8,0.2,-55.6,15.9,0.3,-52.5,5.73,2.51,-43.0,21.6
2013-02-15 01:27:00,0.0,1.9276,0.0010,406.71,0.26,-1.0,0.0,138.25,21.94,24.61,36.29,0.04,-272.74,-272.73,-44,554,-927,15.8,0.2,-55.4,16.0,0.2,-52.7,5.73,2.34,-43.0,21.6
2013-02-15 01:28:00,0.0,1.9276,0.0007,406.73,0.27,-1.0,0.0,138.25,21.94,24.61,36.29,0.04,-272.74,-272.74,-44,554,-928,15.8,0.2,-55.7,16.0,0.3,-52.5,5.73,2.39,-43.0,21.6
2013-02-15 01:29:00,0.0,1.9276,0.0010,407.18,0.43,-1.0,0.0,138.25,21.94,24.61,36.29,0.04,-272.74,-272.74,-44,554,-928,15.8,0.2,-55.5,16.0,0.3,-52.4,5.73,2.51,-43.0,21.6
2013-02-15 01:30:00,0.0,1.9269,0.0008,407.47,0.21,-1.0,0.0,138.25,21.93,24.61,36.29,0.04,-272.74,-272.74,-44,554,-928,15.8,0.3,-52.1,16.0,0.3,-50.1,5.73,2.32,-43.0,21.6
2013-02-15 01:31:00,0.0,1.9269,0.0008,407.38,0.28,-1.0,0.0,138.25,21.94,24.61,36.29,0.04,-272.74,-272.74,-44,554,-927,15.8,0.3,-51.7,16.0,0.4,-49.8,5.73,2.41,-43.0,21.6
2013-02-15 01:32:00,0.0,1.9264,0.0008,407.36,0.22,-1.0,0.0,138.25,21.94,24.61,36.29,0.04,-272.74,-272.74,-44,554,-928,15.9,0.3,-51.9,16.0,0.3,-49.8,5.73,2.49,-42.9,21.6
2013-02-15 01:33:00,0.0,1.9256,0.0009,407.19,0.30,-1.0,0.0,138.25,21.93,24.61,36.29,0.04,-272.74,-272.74,-44,554,-928,15.9,0.2,-54.0,16.0,0.3,-51.5,5.73,2.31,-43.0,21.6
2013-02-15 01:34:00,0.0,1.9250,0.0009,407.05,0.26,-1.0,0.0,138.25,21.93,24.61,36.30,0.04,-272.74,-272.74,-44,554,-928,15.9,0.2,-54.5,16.0,0.3,-51.7,5.73,2.45,-43.0,21.6
2013-02-15 01:35:00,0.0,1.9247,0.0009,406.91,0.24,-1.0,0.0,138.25,21.94,24.61,36.30,0.04,-272.74,-272.75,-44,554,-927,15.9,0.2,-54.4,16.0,0.3,-51.6,5.73,2.46,-43.0,21.7
2013-02-15 01:36:00,0.0,1.9243,0.0006,407.15,0.34,-1.0,0.0,138.25,21.94,24.61,36.30,0.04,-272.74,-272.74,-44,554,-928,15.9,0.2,-54.5,16.0,0.3,-51.8,5.73,2.31,-43.0,21.6
2013-02-15 01:37:00,0.0,1.9248,0.0009,407.50,0.28,-1.0,0.0,138.25,21.94,24.61,36.30,0.04,-272.74,-272.74,-45,554,-928,15.9,0.2,-54.5,16.0,0.3,-51.7,5.73,2.46,-43.0,21.6
2013-02-15 01:38:00,0.0,1.9253,0.0009,407.63,0.25,-1.0,0.0,138.25,21.94,24.61,36.29,0.04,-272.73,-272.74,-44,554,-928,15.9,0.2,-54.4,16.0,0.3,-51.8,5.73,2.45,-43.0,21.6
2013-02-15 01:39:00,0.0,1.9250,0.0009,407.63,0.29,-1.0,0.0,138.25,21.94,24.61,36.29,0.04,-272.74,-272.74,-44,554,-928,15.9,0.2,-53.7,16.0,0.3,-51.8,5.73,2.31,-43.0,21.6
2013-02-15 01:40:00,0.0,1.9263,0.0011,409.42,1.13,-1.0,0.0,138.25,21.94,24.61,36.29,0.04,-272.74,-272.74,-44,554,-928,15.9,0.2,-53.3,16.0,0.3,-50.9,5.73,2.48,-43.0,21.6
2013-02-15 01:41:00,0.0,1.9275,0.0010,412.23,1.11,-1.0,0.0,138.25,21.94,24.61,36.29,0.04,-272.74,-272.75,-44,554,-928,15.9,0.2,-53.3,16.0,0.3,-51.0,5.73,2.43,-43.0,21.6
2013-02-15 01:42:00,0.0,1.9282,0.0008,413.26,0.31,-1.0,0.0,138.25,21.94,24.61,36.29,0.04,-272.74,-272.73,-45,554,-928,15.9,0.3,-52.6,16.0,0.3,-50.9,5.73,2.32,-43.0,21.6
2013-02-15 01:43:00,0.0,1.9277,0.0008,412.30,0.31,-1.0,0.0,138.25,21.94,24.61,36.29,0.04,-272.74,-272.74,-44,554,-928,15.9,0.3,-52.5,16.0,0.3,-50.2,5.73,2.49,-43.0,21.6
2013-02-15 01:44:00,0.0,1.9275,0.0008,412.49,0.43,-1.0,0.0,138.25,21.94,24.61,36.28,0.04,-272.74,-272.74,-44,554,-927,15.9,0.3,-52.4,16.0,0.3,-50.2,5.73,2.42,-43.0,21.6
2013-02-15 01:45:00,0.0,1.9274,0.0010,412.31,1.61,-1.0,0.0,138.25,21.94,24.61,36.29,0.04,-272.74,-272.74,-44,554,-928,15.9,0.3,-52.5,16.0,0.3,-50.1,5.73,2.32,-43.0,21.6
2013-02-15 01:46:00,0.0,1.9295,0.0008,415.17,0.53,-1.0,0.0,138.25,21.94,24.61,36.29,0.04,-272.74,-272.74,-44,555,-928,15.9,0.3,-52.6,16.0,0.3,-50.2,5.73,2.50,-43.0,21.6
2013-02-15 01:47:00,0.0,1.9286,0.0007,412.94,0.50,-1.0,0.0,138.25,21.94,24.61,36.29,0.04,-272.74,-272.73,-45,554,-928,15.9,0.3,-52.3,16.0,0.3,-50.1,5.73,2.40,-43.0,21.6
2013-02-15 01:48:00,0.0,1.9277,0.0009,410.95,0.34,-1.0,0.0,138.25,21.94,24.61,36.29,0.04,-272.74,-272.74,-44,554,-927,15.9,0.3,-52.5,16.0,0.3,-50.2,5.73,2.34,-43.0,21.6
2013-02-15 01:49:00,0.0,1.9281,0.0008,411.19,0.32,-1.0,0.0,138.25,21.94,24.61,36.29,0.04,-272.74,-272.74,-44,554,-928,15.8,0.3,-52.6,16.0,0.3,-50.2,5.73,2.50,-43.0,21.6
2013-02-15 01:50:00,0.0,1.9272,0.0008,410.63,0.29,-1.0,0.0,138.25,21.94,24.61,36.29,0.04,-272.74,-272.73,-44,554,-928,15.9,0.3,-52.5,16.0,0.3,-50.1,5.73,2.40,-43.0,21.6
2013-02-15 01:51:00,0.0,1.9278,0.0008,411.60,0.45,-1.0,0.0,138.25,21.95,24.61,36.29,0.04,-272.74,-272.74,-44,554,-928,15.8,0.3,-52.5,16.0,0.3,-50.2,5.73,2.33,-43.0,21.6
2013-02-15 01:52:00,0.0,1.9277,0.0010,411.49,0.43,-1.0,0.0,138.25,21.94,24.61,36.29,0.04,-272.74,-272.74,-44,554,-928,15.8,0.3,-52.4,16.0,0.3,-50.2,5.73,2.51,-43.0,21.7
2013-02-15 01:53:00,0.0,1.9277,0.0007,412.06,0.30,-1.0,0.0,138.25,21.94,24.61,36.29,0.04,-272.74,-272.73,-44,554,-927,15.8,0.3,-52.6,16.0,0.3,-50.1,5.73,2.38,-43.0,21.6
2013-02-15 01:54:00,0.0,1.9280,0.0010,411.93,0.49,-1.0,0.0,138.25,21.95,24.61,36.29,0.04,-272.73,-272.74,-44,554,-928,15.9,0.3,-52.3,16.0,0.3,-50.1,5.73,2.34,-43.0,21.6
2013-02-15 01:55:00,0.0,1.9281,0.0009,411.30,0.24,-1.0,0.0,138.25,21.95,24.61,36.29,0.04,-272.74,-272.74,-44,554,-928,15.8,0.3,-51.9,16.0,0.3,-50.2,5.73,2.51,-42.9,21.6
2013-02-15 01:56:00,0.0,1.9277,0.0009,410.57,0.36,-1.0,0.0,138.25,21.95,24.61,36.29,0.04,-272.74,-272.74,-44,554,-928,15.9,0.3,-51.7,16.0,0.3,-50.0,5.73,2.38,-42.9,21.6
2013-02-15 01:57:00,0.0,1.9274,0.0009,410.56,0.27,-1.0,0.0,138.25,21.95,24.61,36.29,0.04,-272.74,-272.73,-44,554,-927,15.9,0.3,-51.6,16.0,0.4,-49.6,5.73,2.34,-43.0,21.6
2013-02-15 01:58:00,0.0,1.9281,0.0008,410.58,0.25,-1.0,0.0,138.25,21.95,24.61,36.30,0.04,-272.74,-272.74,-44,554,-928,15.8,0.3,-51.5,16.0,0.4,-49.6,5.73,2.50,-42.9,21.6
2013-02-15 01:59:00,0.0,1.9277,0.0008,411.01,0.32,-1.0,0.0,138.25,21.95,24.61,36.29,0.04,-272.74,-272.74,-44,555,-928,15.8,0.3,-51.7,16.0,0.4,-49.5,5.73,2.39,-42.9,21.6
2013-02-15 02:00:00,0.0,1.9279,0.0008,411.48,0.30,-1.0,0.0,138.25,21.95,24.61,36.29,0.04,-272.74,-272.74,-44,554,-928,15.8,0.3,-51.6,16.0,0.4,-49.5,5.73,2.33,-42.9,21.6
2013-02-15 02:01:00,0.0,1.9279,0.0009,411.16,0.26,-1.0,0.0,138.25,21.95,24.61,36.30,0.04,-272.73,-272.74,-44,555,-928,15.8,0.3,-51.5,16.0,0.3,-49.8,5.73,2.49,-42.9,21.6
2013-02-15 02:02:00,0.0,1.9277,0.0010,411.10,0.24,-1.0,0.0,138.25,21.95,24.61,36.30,0.04,-272.74,-272.74,-44,554,-927,15.8,0.3,-52.4,16.0,0.3,-50.2,5.73,2.41,-42.9,21.6
2013-02-15 02:03:00,0.0,1.9280,0.0010,411.39,0.30,-1.0,0.0,138.25,21.95,24.61,36.28,0.04,-272.74,-272.74,-44,554,-928,15.8,0.3,-52.5,16.0,0.3,-50.2,5.73,2.32,-42.9,21.6
2013-02-15 02:04:00,0.0,1.9279,0.0008,411.33,0.29,-1.0,0.0,138.25,21.95,24.61,36.29,0.04,-272.73,-272.74,-44,555,-928,15.8,0.3,-52.4,16.0,0.3,-50.2,5.73,2.49,-42.9,21.6
2013-02-15 02:05:00,0.0,1.9281,0.0009,411.40,0.29,-1.0,0.0,138.25,21.95,24.61,36.29,0.04,-272.74,-272.74,-44,554,-928,15.8,0.2,-53.3,16.0,0.3,-50.9,5.73,2.42,-42.9,21.6
2013-02-15 02:06:00,0.0,1.9294,0.0010,411.34,0.28,-1.0,0.0,138.25,21.95,24.60,36.29,0.04,-272.74,-272.74,-44,554,-927,15.8,0.2,-53.2,16.0,0.3,-51.0,5.73,2.32,-42.9,21.6
2013-02-15 02:07:00,0.0,1.9288,0.0008,411.53,0.22,-1.0,0.0,138.25,21.95,24.61,36.29,0.04,-272.74,-272.74,-44,555,-928,15.8,0.2,-53.4,16.0,0.3,-50.9,5.73,2.48,-42.9,21.6
2013-02-15 02:08:00,0.0,1.9287,0.0011,411.59,0.21,-1.0,0.0,138.25,21.95,24.61,36.29,0.04,-272.74,-272.74,-44,554,-928,15.8,0.2,-53.5,16.0,0.3,-51.0,5.73,2.44,-42.9,21.6
2013-02-15 02:09:00,0.0,1.9289,0.0008,411.44,0.23,-1.0,0.0,138.25,21.96,24.61,36.29,0.04,-272.74,-272.74,-44,555,-928,15.8,0.2,-53.4,16.0,0.3,-51.5,5.73,2.31,-42.9,21.6
2013-02-15 02:10:00,0.0,1.9288,0.0008,411.48,0.34,-1.0,0.0,138.25,21.96,24.61,36.29,0.04,-272.74,-272.73,-44,554,-927,15.8,0.2,-53.4,16.0,0.3,-51.3,5.73,2.48,-42.9,21.6
2013-02-15 02:11:00,0.0,1.9290,0.0008,411.63,0.22,-1.0,0.0,138.25,21.96,24.61,36.29,0.04,-272.74,-272.73,-44,555,-927,15.8,0.2,-53.3,16.0,0.3,-50.8,5.73,2.44,-42.9,21.6
2013-02-15 02:12:00,0.0,1.9286,0.0008,411.70,0.26,-1.0,0.0,138.25,21.96,24.61,36.29,0.04,-272.74,-272.74,-44,555,-928,15.8,0.2,-53.4,16.0,0.3,-51.1,5.73,2.31,-42.9,21.6
2013-02-15 02:13:00,0.0,1.9287,0.0009,411.66,0.27,-1.0,0.0,138.25,21.96,24.61,36.28,0.04,-272.74,-272.74,-44,554,-928,15.8,0.2,-53.4,16.0,0.3,-50.9,5.73,2.47,-42.9,21.6
2013-02-15 02:14:00,0.0,1.9289,0.0008,411.58,0.27,-1.0,0.0,138.25,21.96,24.61,36.29,0.04,-272.74,-272.74,-44,555,-928,15.9,0.2,-53.2,16.0,0.3,-50.8,5.73,2.45,-42.9,21.6
2013-02-15 02:15:00,0.0,1.9287,0.0010,411.53,0.26,-1.0,0.0,138.25,21.96,24.61,36.29,0.04,-272.74,-272.74,-44,554,-927,15.8,0.2,-52.8,16.0,0.3,-51.1,5.73,2.31,-42.9,21.6
2013-02-15 02:16:00,0.0,1.9283,0.0009,411.50,0.30,-1.0,0.0,138.25,21.96,24.61,36.29,0.04,-272.74,-272.74,-44,554,-927,15.8,0.3,-52.5,16.0,0.3,-50.2,5.73,2.46,-42.8,21.6
2013-02-15 02:17:00,0.0,1.9283,0.0008,411.47,0.28,-1.0,0.0,138.25,21.96,24.61,36.29,0.04,-272.74,-272.74,-44,555,-928,15.8,0.3,-52.4,16.0,0.3,-50.1,5.73,2.46,-42.9,21.6
2013-02-15 02:18:00,0.0,1.9286,0.0008,411.59,0.27,-1.0,0.0,138.25,21.96,24.61,36.29,0.04,-272.74,-272.74,-45,554,-928,15.9,0.3,-52.4,16.0,0.3,-50.1,5.73,2.31,-42.8,21.6